Location: Piotrkow Trybunalski
(51.4000°N, 19.6830°E)
Time: 01:07:10
(UTC+02:00)

STRAND 1 - Pass Details

Date: 07 April 2023
Orbit: 767 x 779 km, 98.4° (Epoch: 06 June)

Event Time Altitude Azimuth Distance (km) Brightness Sun altitude
Rises 20:23:33 0° 10° (N) 3,252 ? -9.6°
Reaches altitude 10° 20:25:56 10° 5° (N) 2,321 ? -10.0°
Maximum altitude 20:30:47 46° 294° (WNW) 1,024 ? -10.7°
Drops below altitude 10° 20:35:38 10° 221° (SW) 2,306 ? -11.3°
Sets 20:38:00 0° 216° (SW) 3,229 ? -11.7°
